TimeEST,TemperatureF,Dew PointF,Humidity,Sea Level PressureIn,VisibilityMPH,Wind Direction,Wind SpeedMPH,Gust SpeedMPH,PrecipitationIn,Events,Conditions,WindDirDegrees,DateUTC
1:54 AM,28.0,23.0,81,29.96,10.0,NNW,6.9,-,N/A,,Overcast,330,2013-02-25 06:54:00
2:54 AM,27.0,23.0,85,29.98,10.0,WNW,6.9,-,N/A,,Overcast,290,2013-02-25 07:54:00
3:54 AM,27.0,23.0,85,29.99,10.0,West,4.6,-,N/A,,Overcast,280,2013-02-25 08:54:00
4:05 AM,26.6,23.0,86,29.95,10.0,WNW,4.6,-,N/A,,Overcast,290,2013-02-25 09:05:00
4:17 AM,26.6,21.2,80,29.95,10.0,WNW,4.6,-,N/A,,Mostly Cloudy,290,2013-02-25 09:17:00
4:54 AM,26.1,21.9,84,30.01,10.0,WNW,3.5,-,N/A,,Clear,300,2013-02-25 09:54:00
5:32 AM,24.8,21.2,86,29.98,10.0,Calm,Calm,-,N/A,,Mostly Cloudy,0,2013-02-25 10:32:00
5:54 AM,26.1,23.0,88,30.04,10.0,West,3.5,-,N/A,,Overcast,270,2013-02-25 10:54:00
7:21 AM,26.6,21.2,80,30.02,10.0,West,4.6,-,N/A,,Scattered Clouds,270,2013-02-25 12:21:00
7:54 AM,27.0,21.9,81,30.06,10.0,West,4.6,-,N/A,,Clear,270,2013-02-25 12:54:00
8:54 AM,30.0,23.0,75,30.08,10.0,WNW,10.4,-,N/A,,Clear,290,2013-02-25 13:54:00
9:54 AM,32.0,24.1,73,30.08,10.0,West,4.6,-,N/A,,Partly Cloudy,280,2013-02-25 14:54:00
10:22 AM,33.8,24.8,70,30.06,10.0,NNW,5.8,-,N/A,,Mostly Cloudy,340,2013-02-25 15:22:00
10:54 AM,34.0,25.0,70,30.09,10.0,WNW,5.8,-,N/A,,Overcast,300,2013-02-25 15:54:00
11:54 AM,35.1,24.1,64,30.09,10.0,North,5.8,-,N/A,,Overcast,360,2013-02-25 16:54:00
1:54 PM,34.0,25.0,70,30.13,10.0,WNW,8.1,-,N/A,,Overcast,290,2013-02-25 18:54:00
2:54 PM,35.1,24.1,64,30.14,10.0,NW,5.8,-,N/A,,Overcast,310,2013-02-25 19:54:00
3:54 PM,35.1,23.0,61,30.14,10.0,NW,3.5,-,N/A,,Overcast,320,2013-02-25 20:54:00
4:54 PM,36.0,21.9,57,30.14,10.0,Calm,Calm,-,N/A,,Overcast,0,2013-02-25 21:54:00
5:54 PM,34.0,24.1,67,30.16,10.0,Calm,Calm,-,N/A,,Overcast,0,2013-02-25 22:54:00
6:54 PM,33.1,25.0,72,30.19,10.0,Calm,Calm,-,N/A,,Overcast,0,2013-02-25 23:54:00
7:54 PM,32.0,24.1,73,30.19,10.0,Calm,Calm,-,N/A,,Overcast,0,2013-02-26 00:54:00
8:54 PM,32.0,24.1,73,30.19,10.0,Calm,Calm,-,N/A,,Overcast,0,2013-02-26 01:54:00
9:54 PM,28.9,25.0,85,30.19,10.0,Calm,Calm,-,N/A,,Overcast,0,2013-02-26 02:54:00
10:08 PM,28.4,26.6,93,30.16,10.0,Calm,Calm,-,N/A,,Overcast,0,2013-02-26 03:08:00
10:54 PM,30.0,25.0,82,30.21,10.0,Calm,Calm,-,N/A,,Overcast,0,2013-02-26 03:54:00
11:54 PM,28.9,25.0,85,30.22,10.0,Calm,Calm,-,N/A,,Overcast,0,2013-02-26 04:54:00